Location: Banff
(51.1667°N, 115.5667°W)
Time: 09:17:16
(UTC+00:00)

Envisat - Pass Details

Date: 30 November 2022
Orbit: 763 x 765 km, 98.2° (Epoch: 28 January)

Event Time Altitude Azimuth Distance (km) Brightness Sun altitude
Rises 11:11:53 0° 21° (NNE) 3,247 6.6 -38.3°
Reaches altitude 10° 11:14:28 10° 32° (NNE) 2,315 5.9 -37.9°
Enters shadow 11:16:58 23° 55° (NE) 1,576 5.0 -37.5°
